Baker, OR

12:27 PM PDT on June 23, 2017 (GMT -0700)
Baker City Municipal

Weather History for KBKE - March, 2014

Change the Weather History Date:

Wednesday, March 19, 2014

  Actual Average Record
Temperature  
Mean Temperature 40 °F 39 °F  
Max Temperature 58 °F 51 °F 71 °F (1990)
Min Temperature 21 °F 26 °F 14 °F (1965)
Degree Days  
Heating Degree Days 25 26  
Month to date heating degree days 468 548  
Since 1 July heating degree days 5994 6068  
Cooling Degree Days 0 0  
Month to date cooling degree days 0 0  
Year to date cooling degree days 0 0  
Moisture  
Dew Point 23 °F    
Average Humidity 56    
Maximum Humidity 88    
Minimum Humidity 24    
Precipitation  
Precipitation 0.00 in 0.02 in 0.32 in (1953)
Month to date precipitation 0.80 0.49  
Year to date precipitation 2.49 1.87  
Sea Level Pressure  
Sea Level Pressure 30.09 in    
Wind  
Wind Speed 8 mph (ESE)    
Max Wind Speed 21 mph    
Max Gust Speed 28 mph    
Visibility 10 miles    
Events      
T = Trace of Precipitation, MM = Missing Value Source: NWS Daily Summary

Daily Weather History Graph

Daily Weather History Graph

Search for Another Location

Airport or City:

Trip Planner

Search our weather history database for the weather conditions in past years. The results will help you decide how hot, cold, wet, or windy it might be!

Date:

Astronomy

Mar. 19, 2014 Rise Set
Actual Time 6:56 AM PDT 7:02 PM PDT
Civil Twilight 6:26 AM PDT 7:31 PM PDT
Nautical Twilight 5:52 AM PDT 8:06 PM PDT
Astronomical Twilight 5:17 AM PDT 8:41 PM PDT
Moon 10:35 PM PDT (3/19) 8:16 AM PDT (3/19)
Length of Visible Light 13h 04m
Length of Day
12h 06m
Waning Gibbous, 90% of the Moon is Illuminated
Mar 19
Waning Gibbous
Mar 23
Last Quarter
Mar 30
New
Apr 7
First Quarter
Apr 15
Full

Hourly Weather History & Observations

Time (PDT) Temp. Windchill Dew Point Humidity Pressure Visibility Wind Dir Wind Speed Gust Speed Precip Events Conditions
12:53 AM 30.0 °F 22.4 °F 21.9 °F 72% 30.19 in 10.0 mi ESE 8.1 mph - N/A   Clear
1:53 AM 28.0 °F 22.8 °F 21.0 °F 75% 30.19 in 10.0 mi West 4.6 mph - N/A   Clear
2:53 AM 28.0 °F 22.8 °F 21.9 °F 78% 30.19 in 10.0 mi SSW 4.6 mph - N/A   Clear
3:53 AM 27.0 °F 18.7 °F 21.9 °F 81% 30.17 in 10.0 mi ESE 8.1 mph - N/A   Clear
4:53 AM 30.0 °F 25.2 °F 21.0 °F 69% 30.16 in 10.0 mi ESE 4.6 mph - N/A   Clear
5:53 AM 26.1 °F 20.5 °F 21.9 °F 84% 30.17 in 10.0 mi SSW 4.6 mph - N/A   Clear
6:53 AM 25.0 °F - 21.0 °F 85% 30.19 in 10.0 mi Calm Calm - N/A   Clear
7:53 AM 27.0 °F 23.0 °F 23.0 °F 85% 30.19 in 10.0 mi East 3.5 mph - N/A   Clear
8:53 AM 36.0 °F - 24.1 °F 62% 30.17 in 10.0 mi Calm Calm - N/A   Clear
9:53 AM 44.1 °F 39.0 °F 19.9 °F 38% 30.14 in 10.0 mi SE 9.2 mph 18.4 mph N/A   Clear
10:53 AM 46.9 °F - 19.0 °F 33% 30.12 in 10.0 mi SE 12.7 mph - N/A   Clear
11:53 AM 51.1 °F - 19.0 °F 28% 30.10 in 10.0 mi SSE 15.0 mph 21.9 mph N/A   Clear
12:53 PM 51.1 °F - 19.9 °F 29% 30.06 in 10.0 mi SE 13.8 mph 25.3 mph N/A   Clear
1:53 PM 54.0 °F - 21.9 °F 29% 30.03 in 10.0 mi SE 17.3 mph 27.6 mph N/A   Clear
2:53 PM 55.0 °F - 23.0 °F 29% 30.01 in 10.0 mi SE 18.4 mph - N/A   Clear
3:53 PM 57.0 °F - 21.9 °F 26% 29.98 in 10.0 mi SE 18.4 mph 25.3 mph N/A   Clear
4:53 PM 55.9 °F - 21.9 °F 27% 29.97 in 10.0 mi Variable 5.8 mph 17.3 mph N/A   Partly Cloudy
5:53 PM 52.0 °F - 23.0 °F 32% 29.99 in 10.0 mi NNE 6.9 mph - N/A   Mostly Cloudy
6:53 PM 46.0 °F 44.8 °F 25.0 °F 44% 30.00 in 10.0 mi NE 3.5 mph - N/A   Clear
7:53 PM 44.1 °F 37.7 °F 28.9 °F 55% 30.03 in 10.0 mi NNW 12.7 mph - N/A   Clear
8:53 PM 42.1 °F 35.7 °F 32.0 °F 67% 30.03 in 10.0 mi NNW 11.5 mph - N/A   Clear
9:53 PM 39.9 °F - 30.9 °F 70% 30.04 in 10.0 mi Calm Calm - N/A   Mostly Cloudy
10:53 PM 42.1 °F 37.1 °F 30.0 °F 62% 30.04 in 10.0 mi WNW 8.1 mph - N/A   Overcast
11:53 PM 37.9 °F 34.4 °F 30.0 °F 73% 30.05 in 10.0 mi NW 4.6 mph - N/A   Partly Cloudy